Dewpoint
57 61 63 63 64 63 63 63 65 64 64 65 66 66 65 66 68 69 70 73 74 75 75 76 75 75 75 74 74 74 74 74 74 73 72 71 70 71 71 69 70 72 71 70 72 72 74 74 74 74 75 75 75 75 77 77 77 77 78 80 77 77 77
58 60 61 62 63 64 64 64 65 64 64 65 66 67 66 66 68 68 70 73 74 74 75 75 75 75 74 74 74 74 75 74 74 73 72 72 72 72 71 72 71 72 73 72 72 74 75 74 74 74 74 75 74 75 75 77 77 77 76 78 77 77 77
59 60 60 63 63 63 66 64 65 64 66 64 65 66 66 68 68 70 70 71 73 74 74 74 75 74 74 75 74 74 74 73 73 72 71 69 71 68 70 72 71 70 70 71 72 72 73 75 75 75 74 74 72 74 75 76 76 76 77 79 77 76 78
59 60 61 61 65 65 65 65 64 64 64 64 65 65 66 68 68 69 70 71 72 73 74 73 73 73 73 74 74 74 74 74 73 71 69 68 69 69 69 70 71 70 69 70 69 70 68 72 74 75 75 74 74 74 74 74 74 76 76 77 76 76 78
59 60 61 61 61 62 64 65 64 65 64 64 65 67 66 66 66 67 69 69 68 70 71 71 70 72 73 73 72 72 73 73 72 71 70 69 70 70 70 68 69 69 68 69 71 72 73 73 72 73 74 74 73 74 74 74 74 75 76 76 75 75 75
57 58 59 60 60 61 62 63 64 63 64 63 64 64 64 64 65 65 66 68 68 68 70 71 71 72 72 72 72 71 73 73 73 73 71 71 71 69 69 69 68 69 66 68 68 70 72 72 70 71 71 71 70 70 71 72 72 74 75 76 75 74 72
55 57 58 59 59 60 62 65 64 63 64 64 64 64 64 64 64 65 65 65 66 67 67 68 69 69 72 72 72 72 72 71 73 71 71 70 70 70 70 70 70 67 67 68 69 69 69 71 71 72 70 68 70 68 71 73 72 73 75 76 76 75 75
53 54 57 57 57 58 60 62 63 64 65 65 65 62 64 63 63 64 64 63 64 64 64 66 67 70 71 72 71 71 71 71 71 72 71 69 69 70 70 69 70 70 69 67 69 70 68 70 69 71 71 69 69 71 69 72 74 70 71 74 75 75 72
51 53 54 55 56 56 58 61 62 63 64 66 67 64 63 63 63 63 65 67 65 64 65 64 65 67 70 71 72 72 71 71 70 71 71 69 67 67 66 68 69 70 69 67 65 69 69 67 68 70 72 71 71 73 71 73 72 71 70 71 73 73 70
50 51 52 53 54 54 56 58 60 61 62 63 66 68 68 65 64 63 63 64 64 64 64 64 64 64 68 69 70 70 70 71 70 69 69 67 66 66 66 64 66 69 68 67 64 64 69 68 68 69 73 73 72 73 74 73 72 72 71 72 72 73 73
49 51 51 51 52 53 54 55 57 59 60 62 63 64 67 68 65 63 64 64 64 64 64 64 65 64 65 66 67 68 69 69 69 68 68 67 65 65 64 64 63 67 67 67 65 64 65 69 69 70 72 72 71 73 73 73 73 73 70 70 71 71 70
48 49 50 51 52 53 54 55 55 57 58 60 60 61 64 66 68 64 64 65 65 64 64 63 64 64 65 64 65 68 68 68 68 67 68 67 66 65 64 64 64 64 66 67 66 65 63 67 69 69 71 73 71 71 73 74 73 74 72 68 68 69 69
47 49 49 49 51 52 54 54 54 56 57 55 56 58 60 62 64 67 67 66 65 65 65 65 64 65 65 64 64 67 67 67 68 68 67 68 67 66 65 64 63 63 64 67 66 65 63 64 69 70 70 72 71 69 71 73 72 74 74 71 69 69 70
50 48 49 49 50 51 52 53 54 54 55 55 55 56 57 59 60 63 67 67 67 67 64 63 65 66 67 66 66 67 66 66 68 69 70 69 70 69 67 66 65 66 66 67 68 65 64 63 65 68 69 69 69 70 71 72 73 74 75 74 71 69 69
46 47 48 48 50 51 52 51 53 54 54 55 55 55 56 57 59 61 62 66 67 66 68 69 72 65 65 66 67 68 69 69 67 68 70 70 71 71 70 68 68 68 68 69 68 66 66 65 64 66 68 68 68 68 68 66 69 70 72 73 72 71 68
46 46 48 48 50 50 52 52 53 53 54 55 54 54 55 55 57 58 60 62 65 67 68 69 71 72 67 65 67 68 69 70 71 70 71 71 72 73 72 70 70 69 70 69 69 70 70 69 68 65 66 67 68 68 66 65 64 69 67 69 71 71 66
47 47 47 48 50 51 52 52 53 53 54 55 54 54 55 56 57 58 58 61 65 68 68 69 71 72 72 68 66 68 70 71 72 72 71 72 73 73 74 73 71 71 71 71 70 71 72 70 68 66 65 66 67 67 65 64 63 65 63 64 66 69 70
45 46 46 46 49 50 51 51 52 53 54 55 55 54 54 55 56 57 58 61 64 66 69 70 71 72 73 73 71 70 70 71 73 73 72 72 73 74 74 73 72 72 72 71 70 72 70 69 70 70 67 65 66 66 66 66 65 61 62 63 63 67 69
42 43 43 45 44 47 48 48 49 52 55 56 54 54 54 54 54 56 57 60 63 65 67 68 70 72 72 73 74 73 71 72 72 72 72 73 74 74 74 74 74 72 71 70 71 70 72 72 70 70 69 68 68 66 66 65 64 61 61 62 62 63 67
44 43 43 43 43 42 46 47 47 48 52 56 56 55 53 54 54 55 57 59 63 64 66 67 69 71 71 72 71 72 73 74 72 71 71 73 73 74 74 73 73 72 70 70 71 72 71 70 71 70 71 70 70 69 67 67 64 60 59 60 61 62 64
45 45 45 45 45 44 47 47 48 47 49 52 54 55 52 53 54 55 55 57 61 63 65 66 67 68 69 70 71 72 72 73 73 73 72 71 72 72 72 72 72 72 71 68 69 70 71 70 70 71 70 69 69 69 67 65 62 60 58 58 58 60 63
45 45 44 44 45 46 48 46 46 44 48 49 46 50 51 51 52 53 54 55 57 61 62 64 65 66 67 66 68 69 71 71 72 71 72 73 72 72 72 72 73 72 72 71 68 69 69 70 71 70 70 70 69 68 68 67 61 59 58 57 57 59 66
43 44 44 44 43 43 47 46 46 46 49 46 44 44 47 52 53 54 53 55 55 59 60 62 63 64 65 66 67 68 70 71 72 72 73 72 72 72 71 72 72 72 73 72 71 69 68 69 69 71 70 70 70 70 69 68 64 58 57 56 56 59 68
40 42 41 42 44 43 46 46 46 46 46 45 45 45 45 45 50 54 56 56 55 56 58 59 60 62 63 63 65 66 68 69 70 71 71 72 72 72 72 73 73 73 72 72 71 70 69 69 69 70 71 70 70 68 69 69 67 58 56 55 55 62 68
39 39 41 41 41 41 42 46 49 48 47 46 44 46 47 45 46 48 53 55 53 53 55 55 56 59 61 62 63 66 67 68 69 70 71 72 71 71 72 73 73 74 74 72 71 71 72 72 71 70 71 68 69 70 69 69 67 59 56 55 54 62 70
41 41 40 40 40 43 46 49 49 46 44 42 47 48 46 45 46 48 51 53 53 54 54 55 56 57 60 61 63 64 65 67 69 69 70 71 71 72 74 74 74 72 72 72 71 71 70 71 71 71 70 70 70 68 68 69 70 74 56 54 54 56 69
40 40 41 40 41 47 44 44 43 43 44 46 49 47 46 46 46 49 51 52 52 54 54 55 56 57 59 61 61 63 64 66 68 68 69 70 70 71 71 72 72 72 71 71 70 71 70 71 71 70 70 70 70 69 69 68 69 71 57 54 53 54 59
41 41 41 43 46 45 43 40 44 44 42 46 45 45 45 47 48 51 52 50 50 51 53 56 57 57 59 61 62 64 65 66 67 68 69 70 70 71 71 72 71 71 74 72 72 72 72 73 72 71 71 70 70 71 70 71 68 69 60 55 53 53 53
43 43 43 44 44 42 41 42 42 43 45 43 43 45 46 46 50 52 52 52 53 51 52 54 56 58 59 60 62 64 62 65 66 67 69 70 71 70 70 70 70 70 73 73 74 74 73 73 73 73 72 71 73 71 71 72 72 64 70 55 53 52 52
44 44 43 41 40 42 42 44 45 45 45 44 46 46 48 50 52 53 53 54 55 53 52 54 56 59 59 59 60 61 63 64 66 67 68 69 69 69 70 71 72 72 73 73 73 73 72 72 73 72 72 72 72 71 70 72 72 69 63 67 53 52 51
44 44 44 43 41 44 44 44 45 44 44 43 46 48 50 50 52 54 55 55 55 55 53 54 56 57 58 59 58 59 61 62 65 66 67 67 68 69 70 71 72 72 73 72 72 72 72 72 72 72 72 71 71 72 72 71 72 72 71 61 56 53 52
45 45 44 43 44 45 45 44 44 44 44 45 45 45 49 49 50 52 54 54 55 56 55 54 56 57 58 58 58 59 59 59 59 62 64 64 65 68 70 70 71 72 73 74 72 71 72 72 71 71 71 71 71 71 72 73 73 73 75 68 62 57 53
46 46 47 46 46 47 45 45 43 45 45 46 48 47 46 49 49 51 53 54 52 53 55 55 56 58 58 58 57 59 59 59 58 59 61 63 63 63 66 70 71 71 72 73 74 73 72 71 71 71 70 70 69 71 73 73 75 74 72 75 74 68 65
45 45 46 46 47 48 48 46 47 47 47 48 49 50 49 48 48 50 52 51 51 51 54 56 57 56 57 57 57 58 58 58 60 61 60 61 62 62 63 66 69 70 71 72 72 73 72 72 72 71 71 71 72 75 74 73 72 72 73 77 76 73 72
45 45 45 45 47 48 48 49 48 49 49 49 49 50 51 52 52 51 51 52 53 55 55 55 56 57 57 57 56 56 57 57 56 57 59 61 64 65 66 66 66 68 70 72 73 73 72 72 74 74 73 74 76 73 71 71 71 73 63 71 64 71 72
43 43 44 44 45 46 47 48 49 49 49 49 50 50 51 51 52 53 50 52 53 54 55 55 55 54 54 54 53 52 53 53 52 55 58 59 62 63 64 64 58 63 66 65 65 62 58 59 70 72 74 74 73 73 71 71 74 64 58 55 55 58 59
41 41 42 43 44 45 46 47 47 47 48 48 49 49 50 50 51 52 52 52 53 53 54 55 54 54 53 54 52 52 54 54 54 55 58 59 60 61 62 62 64 56 54 56 60 59 57 55 54 54 56 68 70 69 62 60 58 55 53 54 54 52 54
43 43 44 44 43 45 45 45 47 47 47 47 48 48 49 49 49 51 50 52 52 53 53 54 54 54 54 54 54 55 57 57 58 59 59 60 61 62 63 63 63 64 58 53 54 55 54 53 53 52 52 52 56 63 69 64 57 55 55 55 55 53 51